Location: Alterlie Bay
(57.5167°N, 4.1167°W)
Time: 17:33:17
(UTC+00:00)

Daily predictions for brighter satellites

Satellite Brightness Start Highest point End
(mag) Time Altitude Azimuth Time Altitude Azimuth Time Altitude Azimuth
Meteor 1-27 Rocket 4.0 21:21:16 10° S 21:27:03 60° E 21:32:54 10° NNE
Cosmos 2227 Rocket 4.4 21:25:05 10° NW 21:29:31 23° NNE 21:33:57 10° ENE
Cosmos 2297 Rocket 4.2 21:27:12 10° NW 21:31:49 24° NNE 21:36:25 10° ENE
COSMOS 2455 4.1 21:26:33 10° NW 21:32:11 39° NNE 21:37:49 10° E
SL-8 Rocket 4.4 21:28:51 10° N 21:35:07 56° ENE 21:41:18 10° SSE
SL-24 DEB 4.4 21:30:40 10° SSE 21:35:12 60° E 21:39:47 10° N
ERS-1 Rocket 3.0 21:30:14 10° SSE 21:35:17 89° ENE 21:40:21 10° NNW
Cosmos 1238 Rocket 4.0 21:29:46 10° N 21:35:45 57° ENE 21:40:46 10° SSE
SPOT 5 3.2 21:31:43 10° SSE 21:37:00 89° E 21:42:26 10° NNW
ARIANE 5 R/B 2.9 21:34:35 10° S 21:38:53 64° WSW 21:43:14 10° NNW
USA 245 3.8 21:38:31 10° SSW 21:40:40 30° W 21:43:06 10° NNW
ISS -2.4 21:41:04 10° SSW 21:43:40 21° SSE 21:46:17 10° ESE
SPOT 1/Viking Rocket 4.4 21:39:21 10° S 21:44:22 48° W 21:49:24 10° NNW
Spot 2 Rocket 4.0 21:39:35 10° S 21:44:34 59° WSW 21:49:34 10° NNW
Cosmos 1937 Rocket 3.9 21:40:39 10° S 21:45:30 43° ESE 21:50:24 10° NE
Cosmos 1833 4.5 21:42:06 10° NW 21:47:52 68° NE 21:53:38 10° SE
Cosmos 2297 3.9 21:43:31 10° S 21:49:00 51° ESE 21:54:30 10° NE
Cosmos 1340 Rocket 3.3 21:45:28 10° NNW 21:49:31 61° W 21:53:31 10° S
H-2A R/B 4.1 21:51:07 10° NNE 21:55:04 39° E 21:58:57 10° SSE
Cosmos 2082 Rocket 4.1 21:52:06 10° NW 21:56:17 22° WSW 22:00:29 10° SSW
BREEZE-M DEB (TANK) 3.5 21:49:35 10° WSW 21:57:14 45° S 21:59:56 10° ESE
Okean 1 3.9 21:55:17 10° SSE 21:59:02 41° E 22:02:47 10° NNE
Cosmos 1515 4.0 21:57:04 10° S 22:00:42 47° E 22:04:23 10° NNE
Cosmos 1048 Rocket 4.2 21:55:40 10° NNW 22:01:01 69° ENE 22:06:10 10° SE
Cosmos 1461 3.7 21:57:33 10° SSW 22:01:51 37° SE 22:06:04 10° ENE
Cosmos 1943 Rocket 2.4 21:59:38 10° S 22:05:03 51° ESE 22:10:27 10° NE
Cosmos 1544 4.1 22:01:53 10° NNW 22:05:19 41° W 22:08:45 10° SSW
NOSS 2-1 (E) 4.0 22:04:05 10° NW 22:08:20 78° NNE 22:14:16 10° ESE
Nadezhda 1 Rocket 4.2 22:02:57 10° SSW 22:09:13 78° WNW 22:15:25 10° N
SL-27 R/B 2.8 22:09:16 10° NNW 22:12:33 54° ENE 22:15:31 12° SE
ATLAS CENTAUR R/B 2.9 22:11:28 12° SE 22:12:57 15° ESE 22:15:06 10° E
Cosmos 1271 Rocket 4.4 22:10:57 10° SW 22:14:40 35° WNW 22:18:23 10° N
Cosmos 1536 4.5 22:11:29 10° NNW 22:15:02 30° W 22:18:32 10° SSW
Cosmos 1862 Rocket 3.7 22:14:36 10° S 22:18:47 55° E 22:23:02 10° NNE
Cosmos 372 Rocket 4.2 22:19:01 10° S 22:23:54 49° ESE 22:28:50 10° NE
Cosmos 2228 Rocket 4.3 22:21:42 10° SW 22:25:59 43° WNW 22:30:20 10° N
Cosmos 967 Rocket 4.4 22:20:13 10° SW 22:26:27 71° SE 22:32:44 10° NE
Cosmos 2278 Rocket 3.5 22:21:51 10° WSW 22:27:16 45° NW 22:32:44 10° NNE
Cosmos 990 Rocket 4.3 22:22:47 10° SW 22:28:02 72° WNW 22:33:20 10° NNE
Resurs 01 Rocket 4.3 22:28:28 10° WSW 22:30:12 12° W 22:31:56 10° WNW
Cosmos 2369 Rocket 2.6 22:25:10 10° S 22:30:29 46° ESE 22:35:54 10° NE
USA 215 3.3 22:24:48 10° E 22:31:23 87° S 22:37:58 10° W
Cosmos 44 Rocket 3.5 22:26:37 10° NW 22:31:53 75° SW 22:36:33 13° SE
ATLAS 2AS CENTAUR R/B 4.4 22:26:36 10° WNW 22:32:01 23° WSW 22:37:10 10° SSW
Cosmos 2344 4.2 22:24:58 10° NW 22:33:31 82° SW 22:45:16 10° SE
Cosmos 1975 2.9 22:29:54 10° NNW 22:33:54 78° W 22:37:19 14° S
Cosmos 1898 Rocket 3.8 22:29:07 10° SW 22:34:27 76° WNW 22:39:51 10° NNE
Cosmos 494 Rocket 4.0 22:30:57 10° NNW 22:36:12 89° ENE 22:40:39 14° SSE
Cosmos 1821 Rocket 4.4 22:30:45 10° N 22:37:07 60° ENE 22:42:44 13° SSE
Cosmos 2366 rocket 4.1 22:32:31 10° NNW 22:38:44 78° W 22:44:34 12° S
Terra 2.8 22:34:38 10° S 22:39:09 42° W 22:43:42 10° NNW
Cosmos 1707 Rocket 4.1 22:36:35 10° SSW 22:40:57 61° WNW 22:45:23 10° N
Meteor 1-18 Rocket 4.2 22:42:38 10° S 22:48:14 78° ESE 22:53:48 10° NNE
RESURS DK-1 3.2 22:44:43 10° NW 22:48:38 39° WSW 22:51:42 15° S
Cosmos 1900 4.5 22:43:56 10° SW 22:49:02 82° NW 22:54:05 10° NE
Cosmos 2181 Rocket 4.0 22:43:37 10° S 22:49:46 87° E 22:55:56 10° NNE
BREEZE-M R/B 4.2 22:49:53 10° SW 22:50:31 12° SSW 22:50:31 12° SSW
SJ 16-02 3.9 22:50:33 10° W 22:54:11 24° NW 22:57:50 10° NNE
NOSS 2-1 (C) 4.0 22:50:17 10° WNW 22:54:37 64° SW 22:59:58 13° SE
Cosmos 1356 Rocket 3.7 22:52:09 10° N 22:56:27 65° ENE 22:59:46 16° SSE
DNEPR-1 R/B 3.8 22:51:05 10° SW 22:56:35 83° SE 23:01:13 10° NE
NOSS 2-1 (D) 4.1 22:57:09 10° WNW 23:01:29 59° SW 23:06:37 14° SE
Okean 3 4.5 22:59:12 16° SSE 23:01:58 32° E 23:05:45 10° NNE
Cosmos 1378 4.2 23:00:27 17° SSE 23:02:43 32° E 23:06:06 10° NNE
COSMOS 2487 2.8 22:59:39 10° NNW 23:03:02 56° ENE 23:05:34 16° SE
Cosmos 1805 4.1 23:00:25 10° N 23:04:09 42° ENE 23:07:04 15° SE
Cosmos 2150 Rocket 4.3 23:02:52 14° S 23:07:13 51° ESE 23:12:17 10° NE
Meteor 1-12 Rocket 4.3 23:01:39 10° NNW 23:07:34 84° ENE 23:12:15 16° SSE
Cosmos 2263 4.3 23:05:09 10° SSW 23:10:51 63° ESE 23:16:35 10° NE
Cosmos 1125 Rocket 3.9 23:07:51 16° S 23:11:47 45° ESE 23:16:44 10° NE
ALOS 2 2.7 23:08:32 17° SSE 23:11:55 71° ENE 23:16:19 10° NNW
Cosmos 2227 Rocket 3.3 23:09:36 10° NNW 23:15:01 43° NE 23:20:25 10° ESE
Cosmos 1300 Rocket 4.0 23:10:58 10° N 23:15:19 56° ENE 23:18:37 17° SSE
Cosmos 2297 Rocket 3.0 23:11:35 10° NNW 23:17:09 51° NE 23:22:41 10° ESE
COSMOS 2455 3.0 23:12:49 10° NW 23:18:54 80° NE 23:24:56 10° SE
ISS -2.9 23:16:53 10° WSW 23:19:54 30° S 23:22:53 10° ESE
Meteor 1-15 Rocket 4.4 23:14:26 10° NNW 23:20:10 71° ENE 23:24:54 16° SSE
Spot 4 4.1 23:17:18 17° S 23:21:03 66° WSW 23:25:55 10° NNW
Cosmos 1908 Rocket 4.4 23:18:36 10° NNW 23:22:52 43° W 23:26:23 14° SSW
Cosmos 1766 3.9 23:20:23 10° N 23:24:14 47° ENE 23:27:05 16° SE
Meteor 2-4 Rocket 3.7 23:21:45 12° SSW 23:26:58 84° WNW 23:32:31 10° NNE
Aureole 2 4.1 23:26:56 10° NNW 23:29:57 84° ENE 23:31:59 21° SSE
Nadezhda 3 Rocket 4.1 23:25:32 16° S 23:30:36 71° E 23:36:46 10° NNE
Sich 1 Rocket 3.6 23:30:52 10° NNW 23:35:28 88° ENE 23:38:42 19° SSE
Cosmos 1461 3.6 23:36:09 10° WSW 23:40:48 65° NNW 23:45:19 10° NE
Cosmos 1605 Rocket 4.3 23:37:15 10° N 23:43:29 65° ENE 23:48:50 15° SSE
Cosmos 1470 4.2 23:39:56 10° N 23:43:30 31° ENE 23:46:48 11° SE
Lacrosse 5 2.8 23:41:17 18° S 23:43:55 28° SE 23:48:13 10° E
Cosmos 1867 3.5 23:38:56 10° SW 23:44:24 80° SE 23:49:55 10° NE
SL-16 R/B 4.4 23:39:34 10° E 23:44:36 26° NE 23:49:36 10° N
Okean 2 Rocket 3.1 23:40:57 10° NNW 23:45:23 81° ENE 23:48:30 19° SSE
Cosmos 2242 Rocket 4.0 23:43:27 14° SSW 23:47:15 62° WNW 23:51:44 10° N
SL-27 R/B 4.4 23:44:56 10° WNW 23:47:18 18° WSW 23:49:01 13° SW
Cosmos 2151 Rocket 3.8 23:43:06 10° N 23:47:39 70° ENE 23:50:56 18° SSE
Cosmos 1943 Rocket 3.2 23:43:30 10° WSW 23:48:56 48° NW 23:54:21 10° NNE
Okean 1-7 3.3 23:45:46 15° SSW 23:49:17 62° WNW 23:53:35 10° N
ATLAS CENTAUR R/B 1.0 23:47:33 11° SW 23:51:07 74° SE 23:55:03 10° NE
